TimeCST,TemperatureF,Dew PointF,Humidity,Sea Level PressureIn,VisibilityMPH,Wind Direction,Wind SpeedMPH,Gust SpeedMPH,PrecipitationIn,Events,Conditions,WindDirDegrees,DateUTC
12:02 AM,60.8,60.8,100,29.77,10.0,WNW,4.6,-,N/A,,Scattered Clouds,300,2012-12-29 06:02:00
12:55 AM,61.9,61.5,99,29.78,10.0,WNW,6.9,-,0.00,,Mostly Cloudy,290,2012-12-29 06:55:00
1:01 AM,62.6,62.6,100,29.79,10.0,WNW,9.2,-,N/A,,Overcast,290,2012-12-29 07:01:00
1:08 AM,62.6,62.6,100,29.79,10.0,WNW,11.5,-,N/A,,Mostly Cloudy,300,2012-12-29 07:08:00
1:55 AM,60.8,59.2,94,29.82,10.0,WNW,12.7,-,0.01,,Overcast,300,2012-12-29 07:55:00
2:18 AM,59.0,57.2,94,29.83,10.0,NW,16.1,25.3,N/A,,Overcast,310,2012-12-29 08:18:00
2:31 AM,57.2,55.4,94,29.85,10.0,WNW,15.0,21.9,N/A,,Overcast,300,2012-12-29 08:31:00
2:55 AM,55.8,52.7,89,29.86,10.0,NW,17.3,28.8,N/A,,Overcast,310,2012-12-29 08:55:00
3:03 AM,55.4,51.8,88,29.87,10.0,NW,18.4,29.9,N/A,,Overcast,320,2012-12-29 09:03:00
3:44 AM,53.6,48.2,82,29.89,10.0,NW,18.4,-,N/A,,Overcast,320,2012-12-29 09:44:00
3:55 AM,52.5,47.3,82,29.89,10.0,NW,12.7,25.3,N/A,,Overcast,320,2012-12-29 09:55:00
4:37 AM,51.8,46.4,82,29.92,10.0,NW,13.8,-,N/A,,Overcast,310,2012-12-29 10:37:00
4:49 AM,51.8,44.6,76,29.94,10.0,WNW,13.8,23.0,N/A,,Overcast,300,2012-12-29 10:49:00
4:55 AM,50.9,44.6,79,29.94,10.0,NW,16.1,23.0,N/A,,Overcast,310,2012-12-29 10:55:00
5:55 AM,49.1,42.8,79,29.99,10.0,NNW,18.4,24.2,N/A,,Overcast,330,2012-12-29 11:55:00
6:55 AM,46.8,39.4,75,30.04,10.0,NNW,15.0,-,N/A,,Overcast,330,2012-12-29 12:55:00
7:55 AM,46.0,39.7,79,30.06,10.0,NW,13.8,19.6,N/A,,Overcast,320,2012-12-29 13:55:00
8:55 AM,46.4,39.6,77,30.10,10.0,NW,11.5,-,N/A,,Overcast,310,2012-12-29 14:55:00
9:15 AM,46.4,39.2,76,30.11,10.0,NNW,12.7,-,N/A,,Overcast,330,2012-12-29 15:15:00
9:55 AM,44.1,37.2,77,30.13,10.0,NW,11.5,25.3,N/A,,Overcast,320,2012-12-29 15:55:00
10:03 AM,44.6,35.6,71,30.13,10.0,NW,17.3,-,N/A,,Overcast,310,2012-12-29 16:03:00
10:55 AM,44.4,35.2,70,30.12,10.0,NW,15.0,19.6,N/A,,Overcast,320,2012-12-29 16:55:00
11:55 AM,44.4,34.0,67,30.13,10.0,NNW,19.6,24.2,N/A,,Overcast,330,2012-12-29 17:55:00
12:55 PM,47.8,34.3,60,30.12,10.0,WNW,16.1,-,N/A,,Mostly Cloudy,300,2012-12-29 18:55:00
1:36 PM,48.2,33.8,58,30.12,10.0,NW,17.3,21.9,N/A,,Scattered Clouds,310,2012-12-29 19:36:00
1:55 PM,47.8,33.1,57,30.12,10.0,NNW,15.0,24.2,N/A,,Partly Cloudy,330,2012-12-29 19:55:00
2:55 PM,47.8,32.5,55,30.14,10.0,NW,12.7,-,N/A,,Clear,320,2012-12-29 20:55:00
3:55 PM,47.8,31.1,52,30.17,10.0,NW,15.0,20.7,N/A,,Clear,320,2012-12-29 21:55:00
4:55 PM,44.2,30.7,59,30.20,10.0,NNW,12.7,-,N/A,,Clear,340,2012-12-29 22:55:00
5:55 PM,41.2,30.7,66,30.22,10.0,NNW,6.9,-,N/A,,Clear,330,2012-12-29 23:55:00
6:55 PM,39.6,30.6,70,30.26,10.0,NNW,8.1,-,N/A,,Clear,340,2012-12-30 00:55:00
7:55 PM,38.8,28.6,67,30.29,10.0,NNW,10.4,-,N/A,,Clear,330,2012-12-30 01:55:00
8:55 PM,37.4,28.6,70,30.32,10.0,NW,6.9,-,N/A,,Clear,320,2012-12-30 02:55:00
9:55 PM,36.3,27.9,71,30.33,10.0,NNW,9.2,-,N/A,,Clear,330,2012-12-30 03:55:00
10:55 PM,36.0,28.0,73,30.35,10.0,NW,6.9,-,N/A,,Mostly Cloudy,320,2012-12-30 04:55:00
11:38 PM,37.4,28.4,70,30.34,10.0,NNW,6.9,-,N/A,,Overcast,330,2012-12-30 05:38:00
11:55 PM,37.4,27.3,67,30.35,10.0,NNW,13.8,-,N/A,,Overcast,340,2012-12-30 05:55:00